Rochester/St. Mary's Hospita, MN
on Friday, April 25, 2014

Friday
Previous Day Next Day
Daily Summary
 ActualAverage (KRST)Record (KRST)
Temperature
Mean Temperature °F 51°F  
Max Temperature 64°F 62°F 87°F (1939)
Min Temperature 37°F 40°F 17°F (1934)
Degree Days
Heating Degree Days 14 14  
Month to date heating degree days 488  
Since 1 July heating degree days 7360  
Cooling Degree Days 0 0  
Month to date cooling degree days 0  
Year to date cooling degree days 0  
Moisture
Dew Point 35°F   
Average Humidity 60    
Maximum Humidity 96    
Minimum Humidity 27    
Precipitation
Precipitation 0.00 in 0.13 in 2.40 in (1929)
Month to date precipitation 2.63  
Year to date precipitation 6.20  
Snow
Snow 0.00 in 0.00 in 1.70 in (1965)
Month to date snowfall 3.0  
Since 1 July snowfall 51.6  
Snow Depth in   
Wind
Wind Speed 8 mph   
Max Wind Speed 25 mph   
Max Gust Speed 36 mph   
Visibility 10 miles   
Events     

Key: T is trace of precipitation, MM is missing value
Source: NWS Daily Summary
Time(CDT)TemperatureDew PointHumidity Pressure Visibility Wind DirectionWind SpeedGust SpeedPrecipitationEvents Conditions
12:12 AM 42.1°F 39.6°F 91% 29.74 in 10.0 miles West 5.8 mph - N/A   Clear
12:33 AM 42.4°F 39.2°F 88% 29.73 in 10.0 miles WSW 5.8 mph - N/A   Clear
12:52 AM 42.1°F 38.7°F 88% 29.74 in 10.0 miles West 4.6 mph - N/A   Clear
1:12 AM 41.9°F 38.5°F 88% 29.73 in 10.0 miles West 3.5 mph - N/A   Clear
1:33 AM 41.0°F 38.3°F 90% 29.74 in 10.0 miles West 4.6 mph - N/A   Clear
1:52 AM 40.6°F 38.3°F 91% 29.73 in 10.0 miles WSW 4.6 mph - N/A   Clear
2:12 AM 41.0°F 38.3°F 90% 29.73 in 10.0 miles West 3.5 mph - N/A   Clear
2:33 AM 41.0°F 38.3°F 90% 29.73 in 10.0 miles WSW 3.5 mph - N/A   Clear
2:52 AM 40.5°F 37.9°F 91% 29.73 in 10.0 miles South 4.6 mph - N/A   Clear
3:12 AM 39.6°F 37.8°F 93% 29.73 in 10.0 miles SW 3.5 mph - N/A   Clear
3:33 AM 39.9°F 37.6°F 91% 29.73 in 10.0 miles SW 4.6 mph - N/A   Clear
3:52 AM 39.7°F 37.8°F 93% 29.73 in 7.0 miles SSW 3.5 mph - N/A   Clear
4:12 AM 39.4°F 37.4°F 93% 29.73 in 5.0 miles WSW 3.5 mph - N/A   Mostly Cloudy
4:33 AM 38.8°F 37.4°F 95% 29.74 in 3.0 miles SW 5.8 mph - N/A   Mostly Cloudy
4:52 AM 38.3°F 37.0°F 95% 29.74 in 5.0 miles Calm Calm - N/A   Scattered Clouds
5:12 AM 38.3°F 36.7°F 94% 29.74 in 10.0 miles Calm Calm - N/A   Clear
5:33 AM 38.1°F 37.0°F 96% 29.74 in 7.0 miles Calm Calm - N/A   Clear
5:52 AM 37.9°F 36.9°F 96% 29.75 in 7.0 miles SSW 3.5 mph - N/A   Clear
6:12 AM 38.7°F 37.4°F 95% 29.75 in 10.0 miles Calm Calm - N/A   Clear
6:33 AM 37.9°F 36.3°F 94% 29.75 in 10.0 miles Calm Calm - N/A   Clear
7:12 AM 38.3°F 36.5°F 93% 29.76 in 10.0 miles South 3.5 mph - N/A   Clear
7:33 AM 40.3°F 37.6°F 90% 29.76 in 10.0 miles SW 4.6 mph - N/A   Clear
7:52 AM 41.4°F 38.3°F 89% 29.77 in 10.0 miles SW 6.9 mph - N/A   Clear
8:13 AM 43.2°F 39.0°F 85% 29.76 in 10.0 miles West 10.4 mph - N/A   Clear
8:32 AM 45.5°F 37.8°F 74% 29.77 in 10.0 miles West 9.2 mph 21.9 mph N/A   Clear
8:52 AM 46.9°F 38.5°F 72% 29.77 in 10.0 miles West 9.2 mph - N/A   Clear
9:12 AM 48.6°F 37.9°F 67% 29.77 in 10.0 miles WNW 15.0 mph 20.7 mph N/A   Clear
9:32 AM 49.8°F 38.8°F 66% 29.78 in 10.0 miles WNW 9.2 mph - N/A   Clear
9:52 AM 50.5°F 37.6°F 61% 29.78 in 10.0 miles WNW 18.4 mph 21.9 mph N/A   Clear
10:12 AM 51.4°F 37.2°F 58% 29.79 in 10.0 miles WNW 15.0 mph 21.9 mph N/A   Clear
10:32 AM 51.8°F 37.6°F 58% 29.79 in 10.0 miles WNW 13.8 mph 24.2 mph N/A   Clear
10:52 AM 53.8°F 38.1°F 55% 29.80 in 10.0 miles WNW 10.4 mph 17.3 mph N/A   Clear
11:13 AM 54.9°F 37.2°F 51% 29.80 in 10.0 miles WSW 11.5 mph 25.3 mph N/A   Clear
11:32 AM 55.6°F 35.2°F 46% 29.80 in 10.0 miles WNW 13.8 mph 25.3 mph N/A   Clear
11:52 AM 56.5°F 34.2°F 43% 29.79 in 10.0 miles West 18.4 mph 27.6 mph N/A   Clear
12:12 PM 57.7°F 35.6°F 44% 29.80 in 10.0 miles West 11.5 mph 20.7 mph N/A   Clear
12:32 PM 57.6°F 32.9°F 39% 29.80 in 10.0 miles West 15.0 mph 27.6 mph N/A   Clear
12:52 PM 58.8°F 36.1°F 43% 29.80 in 10.0 miles West 11.5 mph 24.2 mph N/A   Clear
1:13 PM 58.6°F 34.3°F 40% 29.79 in 10.0 miles West 24.2 mph 28.8 mph N/A   Clear
1:32 PM 59.7°F 34.9°F 39% 29.79 in 10.0 miles West 19.6 mph 25.3 mph N/A   Clear
1:53 PM 59.9°F 35.1°F 39% 29.79 in 10.0 miles West 21.9 mph 31.1 mph N/A   Scattered Clouds
2:12 PM 60.3°F 33.4°F 37% 29.79 in 10.0 miles West 21.9 mph 32.2 mph N/A   Scattered Clouds
2:32 PM 61.2°F 32.4°F 34% 29.79 in 10.0 miles West 19.6 mph 31.1 mph N/A   Clear
2:53 PM 61.9°F 31.6°F 32% 29.79 in 10.0 miles West 23.0 mph 32.2 mph N/A   Clear
3:12 PM 62.6°F 31.6°F 31% 29.79 in 10.0 miles West 19.6 mph 27.6 mph N/A   Clear
3:32 PM 62.8°F 30.4°F 30% 29.79 in 10.0 miles West 23.0 mph 32.2 mph N/A   Scattered Clouds
3:53 PM 63.0°F 29.5°F 28% 29.79 in 10.0 miles WNW 21.9 mph 33.4 mph N/A   Scattered Clouds
4:12 PM 63.0°F 28.2°F 27% 29.79 in 10.0 miles West 25.3 mph 35.7 mph N/A   Scattered Clouds
4:32 PM 62.6°F 28.6°F 28% 29.79 in 10.0 miles West 18.4 mph 31.1 mph N/A   Clear
4:53 PM 62.6°F 29.8°F 29% 29.79 in 10.0 miles West 16.1 mph 27.6 mph N/A   Scattered Clouds
5:12 PM 63.9°F 28.9°F 27% 29.79 in 10.0 miles West 17.3 mph 32.2 mph N/A   Scattered Clouds
5:32 PM 64.2°F 29.5°F 27% 29.79 in 10.0 miles West 18.4 mph 26.5 mph N/A   Scattered Clouds
5:53 PM 63.1°F 29.3°F 28% 29.80 in 10.0 miles WNW 17.3 mph 27.6 mph N/A   Scattered Clouds
6:12 PM 63.0°F 31.6°F 31% 29.80 in 10.0 miles West 13.8 mph 21.9 mph N/A   Scattered Clouds
6:32 PM 62.8°F 32.0°F 32% 29.80 in 10.0 miles WNW 18.4 mph 25.3 mph N/A   Clear
6:53 PM 62.6°F 31.6°F 31% 29.81 in 10.0 miles WNW 13.8 mph 24.2 mph N/A   Clear
7:12 PM 62.1°F 29.1°F 29% 29.81 in 10.0 miles West 15.0 mph - N/A   Clear
7:32 PM 61.7°F 29.3°F 29% 29.81 in 10.0 miles WNW 12.7 mph 17.3 mph N/A   Mostly Cloudy
7:53 PM 60.8°F 30.9°F 32% 29.81 in 7.0 miles WNW 8.1 mph - N/A   Scattered Clouds
8:12 PM 59.9°F 31.5°F 34% 29.82 in 10.0 miles West 6.9 mph - N/A   Scattered Clouds
8:32 PM 59.4°F 31.3°F 35% 29.82 in 10.0 miles West 4.6 mph - N/A   Clear
8:53 PM 58.3°F 32.0°F 37% 29.83 in 10.0 miles West 4.6 mph - N/A   Clear
9:12 PM 57.6°F 32.0°F 38% 29.85 in 10.0 miles WNW 4.6 mph - N/A   Clear
9:32 PM 56.3°F 32.5°F 41% 29.85 in 10.0 miles NW 3.5 mph - N/A   Clear
9:53 PM 54.7°F 35.2°F 48% 29.86 in 10.0 miles North 5.8 mph - N/A   Clear
10:12 PM 53.6°F 36.9°F 53% 29.86 in 10.0 miles NNE 5.8 mph - N/A   Clear
10:32 PM 52.7°F 37.9°F 57% 29.87 in 10.0 miles North 6.9 mph - N/A   Clear
10:53 PM 51.6°F 38.3°F 60% 29.87 in 10.0 miles North 5.8 mph - N/A   Clear
11:12 PM 50.9°F 38.3°F 62% 29.88 in 10.0 miles North 5.8 mph - N/A   Clear
11:32 PM 50.0°F 38.3°F 64% 29.88 in 10.0 miles NNE 5.8 mph - N/A   Clear
11:52 PM 49.3°F 38.3°F 66% 29.89 in 10.0 miles North 4.6 mph - N/A   Clear
Astronomy
Sunrise:06:10 AM (CDT) Moon Rise:04:07 AM (CDT)4/25
Sunset:08:06 PM (CDT) Moon Set:04:21 PM (CDT)4/25
Moon Phase
Apr. 25 Apr. 29 May. 06 May. 14 May. 21

Copyright © 2014 The Weather Underground, Inc.